Location: Unspecified
(0.0000°N, 0.0000°E)
Time: 11:33:35
(UTC+00:00)

ISS - Pass Details

Date: 06 April 2024
Orbit: 412 x 418 km, 51.6° (Epoch: 20 April)

Event Time Altitude Azimuth Distance (km) Brightness Sun altitude
Rises 19:47:08 0° 315° (NW) 2,351 0.8 -26.0°
Reaches altitude 10° 19:49:16 10° 308° (NW) 1,492 -0.2 -26.6°
Enters shadow 19:50:53 24° 294° (WNW) 902 -1.5 -27.0°
